timestamp,gas_concentrations,,corrected_fluxes_and_quality_flags,,,,,,,,,,storage_terms,,,turbulence,,,footprint,,
ISOdate,CO2_1_1_1,H2O_1_1_1,Tau_1_1_1,QcTau_1_1_1,H_1_1_1,QcH_1_1_1,LE_1_1_1, QcLE_1_1_1,Fc_1_1_1, QcFc_1_1_1,E_1_1_1, QcE_1_1_1,Sa_1_1_1,Sw_1_1_1,Sc_1_1_1,ustar_1_1_1,MO_length_1_1_1,ZL_1_1_1,Fetchmax_1_1_1,Fetch70_1_1_1,Fetch90_1_1_1
yyyymmddHHMM,[µmol+1mol_a-1],[mmol+1mol_a-1],[kg+1m-1s-2],[#],[W+1m-2],[#],[W+1m-2],[#],[µmol+1s-1m-2],[#],[mmol+1s-1m-2],[#],[W+1m-2],[W+1m-2],[µmol+1s-1m-2],[m+1s-1],[m],[#],[m],[m],[m]
201402190030,397.37821151086973,4.4605250120814883,0.11705808200888262,0,-24.362357912626351,0,-1.8206815106571743,0,0.51737811037055792,0,-4.03258487714264549E-002,0,-9999.,-9999.,-9999.,0.31207292384937374,103.68574365485682,0.20832179274231613,97.858453674240991,178.91646366954097,268.04946542529120
201402190100,396.96250352633888,4.4633105502142021,0.14531951934170534,0,-51.987680885625068,0,-2.3832950994212956,1,0.61262284574581782,0,-5.27910070861071362E-002,1,1.8673558521067379,0.10160292017890797,-0.33586718572247359,0.34777882281018191,67.243190642565551,0.32122211622610014,107.63125410559215,196.78425973288475,294.81867986691776
201402190130,396.97723991581159,4.3960051234230821,0.28299401857066953,0,-70.446463331667886,0,-0.53029907714975677,0,0.90554920346888634,0,-1.17450183802641928E-002,0,-2.8259975759743363,-2.4565237682529451,1.19122776832127127E-002,0.48519017178784951,134.75153945310109,0.16029501471868277,112.34012976479191,205.39358625676550,307.71701982438748
201402190200,396.72192848166355,4.3026716420221458,0.24416148591632561,0,-61.965576032120467,0,-0.30468397117921564,0,1.2415249530239554,0,-6.74702523201670644E-003,0,-4.0222504580170160,-3.4096967447731794,-0.20654338074922526,0.45049048340379644,122.63127870837050,0.17613777029404520,112.57108316665396,205.81584273417891,308.34963697275725
201402190230,396.38611414139228,4.1916227259452272,0.21750393628278639,0,-52.583948382706588,0,2.9280484534729987,0,1.1500937567924767,0,6.48199591491244453E-002,0,-7.5981989208240517,-4.0632043833309917,-0.27200950251943690,0.42491254952631841,121.26908708910408,0.17811629095656598,115.85952090880194,211.82815572025092,317.35717741276261
201402190300,396.31698090393417,4.0177993033839838,0.27486539667024867,0,-58.216879296332372,0,5.0255038327621762,0,1.0518467779860519,0,0.11120148759805336,0,-11.491171510536690,-6.3760249696564939,-5.61124970856449606E-002,0.47716414870487955,155.13882935701116,0.13923013400013023,115.43893576980632,211.05919194741682,316.20512955751155
201402190330,395.75992633456872,3.8176885238487737,0.27279178485421074,0,-70.064726519914771,0,9.8493878340383940,0,1.7487701580064634,0,0.21789414953448391,0,-5.4595941072439755,-7.3496970272808229,-0.45261925430059530,0.47508975812022441,127.24584407426167,0.16975014121006635,106.93596267838578,195.51304525212439,292.91416892913134
201402190400,395.31950743304623,3.6687533114998327,0.24618001802431133,0,-58.685160545780427,0,6.0532456509101671,0,0.82836576094399872,0,0.13390354616353689,0,-1.8784689790116089,-5.4728362253134080,-0.35800145555114332,0.45121382524006920,130.15593977067792,0.16595477730833566,115.37303535385817,210.93870496920391,316.02461810854658
201402190430,395.29891349838908,3.5918424875807813,0.20570021276124695,0,-48.724872946990772,0,6.3420795172683491,0,0.59394229770569140,0,0.14024013937442345,0,-9.4288280042248989,-2.8311517406483895,-1.67631513110954693E-002,0.41216233260691848,119.47053077100971,0.18079772359428892,104.25081659957296,190.60374183663640,285.55913782052056
201402190500,395.33430473441950,3.5074589233511357,0.28839810070324878,0,-77.417534241270275,0,2.2952453063864775,0,0.75353528941047321,0,5.07199955880191095E-002,0,-16.851134712438366,-3.1173240786619774,2.88914885659120255E-002,0.48731666355184156,124.30037163994814,0.17377260996907679,115.10489012713680,210.44844997422351,315.29012678990921
201402190530,395.10276704532100,3.4403944765696304,0.16306701301826051,0,-47.022466031105907,0,1.5868770589496302,0,0.51717859607612526,0,3.50511846169040131E-002,0,-11.089257508224081,-2.4840771140209541,-0.18943221623563949,0.36602742730259652,86.746641289239548,0.24900099506998855,111.02894492729129,202.99632219285883,304.12548141794827
201402190600,395.27811792144041,3.3884285388878586,0.22094441836174947,0,-45.370459073666815,0,0.56588517566699836,1,0.55447891750034017,0,1.24912675816587476E-002,1,-16.411544370394857,-1.9317217747273530,0.14388381419167934,0.42543369936923264,141.20352219961552,0.15297068843271969,112.90274111611124,206.42221924266454,309.25809947873569
201402190630,395.96977166003677,3.3315452771009983,0.16029892871576398,0,-42.175018804338549,0,-2.7440205025897377,0,0.89233075398833561,0,-6.05299318146506685E-002,0,-17.299338829363545,-2.1222770568966118,0.56923179357040088,0.36182851940107391,93.466591993580423,0.23109861544415311,107.04243301533184,195.70770698503412,293.20580767704217
201402190700,396.28703262594973,3.2814953286375039,0.23579189533319156,0,-37.222770224027109,0,-2.8129393061058789,1,1.1357240534157234,0,-6.20143494637809892E-002,1,-14.748753986234574,-1.8733035914782497,0.26178997032884743,0.43825798360771329,188.22379531750454,0.11475701020460315,111.14882477737531,203.21550079252961,304.45385089982517
201402190730,396.12457479416287,3.2571228723442265,0.20208133646668877,0,-47.899648419724109,0,-3.8338775666135847,0,1.5492076527696996,0,-8.45235980134490389E-002,0,0.46467686542801862,-0.91226087243221898,-0.13406028448045340,0.40570927609230495,116.04959718703196,0.18612731559238627,102.57253384288241,187.53530569657423,280.96206134043507
201402190800,396.25147143550788,3.2486072489909814,0.23892038110790123,0,-19.938075027956547,0,-0.83238879647511410,1,1.1057717426354745,0,-1.83548462592468820E-002,1,4.9803436594946806,-0.31849088795546948,0.10465385242569544,0.44127053568359031,358.77565056456831,6.02047546036368550E-002,108.93433723491493,199.16671129033503,298.38802643949322
201402190830,395.82567911067019,3.3062015378921292,0.33636605080552678,0,-35.488795264571131,1,0.37178670383692169,2,1.9497285406567333,1,8.20427294194508994E-003,2,18.837707570888174,2.1466544713719666,-0.35020859428137763,0.52429679665229301,338.15356645636149,6.38763039714604630E-002,112.27809192463755,205.28016129900902,307.54708856893484
201402190900,395.49386554827254,3.4071695974030805,0.38726947148372859,0,30.487719377946835,1,10.265069367458263,1,1.2330642316661842,2,0.22678570740801629,1,29.561065460877021,3.7424606334413046,-0.27171971882302748,0.56381552770795074,-489.61020472031794,-4.41167275349962501E-002,110.88895946533380,202.74038412232733,303.74203955026940
201402190930,394.96505500601614,3.5081557419965215,0.43567896086521130,0,50.789701707928394,0,14.789671698416564,0,1.5148171654431632,0,0.32712584630132796,0,29.108961833346619,3.7225626891588823,-0.43115820787159487,0.59933167736000548,-353.07518422855662,-6.11767718742239480E-002,108.85915500285667,199.02925419198945,298.18209065820872
201402191000,394.63886910721317,3.5952053696983817,0.45521969801876888,0,53.767696529007914,0,15.283362052859330,0,1.0492794192968562,1,0.33843728744559498,0,28.974357480480919,3.1910757919206469,-0.26478579807061570,0.61398129861321926,-358.62684111861404,-6.02297361029257433E-002,100.94436247783658,184.55848916264722,276.50224772561825
201402191030,394.25387789638501,3.6216998443373614,0.46829664145357608,0,42.441440987918533,1,21.669394727899686,0,1.6790185117383156,2,0.48035277701381096,0,26.032373301661053,0.96632770279961688,-0.31126727079920397,0.62399448477507224,-476.95258622832904,-4.52875204447671167E-002,102.76927643552686,187.89501390375989,281.50096978221654
201402191100,394.03700932350233,3.6187472125398057,0.72855635995441004,0,141.85305943024852,0,33.923071084563169,0,1.2747343434596159,0,0.75279755713840024,0,26.773872161351356,-0.10714719468128238,-0.17464299583849130,0.77985814000835108,-278.61413535416534,-7.75265762181907014E-002,110.13306547653322,201.35836883077710,301.67152880736847
201402191130,393.74163899287652,3.5034472879430703,1.0685034121323778,0,164.42216752688662,0,41.801544605901498,0,0.91476186066270060,0,0.92836884934284103,0,19.611196316215516,-4.1691449571500350,-0.23719911876674823,0.94572895074716412,-428.76570004975048,-5.03771640256991463E-002,116.26461457958375,212.56879614843984,318.46679173654604
201402191200,393.77323288247652,3.4188676911907314,1.0207289978200875,0,202.58171281392819,0,42.954669318436387,0,1.0698300236029219,0,0.95464920360881778,0,17.278838052210677,-3.0477829275594623,2.53020058934899060E-002,0.92560176180216391,-326.23942895729454,-6.62090418348160181E-002,118.93409426914783,217.44945640784258,325.77891017787471
201402191230,394.13824535205208,3.4386116682698531,0.79752967757733795,0,219.97103951685685,0,60.323181295728482,1,1.0275469525372181,0,1.3417288422714859,1,19.570453488967978,0.70854639203444092,0.29135459538335967,0.81952619258963877,-208.50513089528894,-0.10359457298366197,113.58266388248454,207.66533490983906,311.12051327349627
201402191300,393.65057571581127,3.2937640294437651,0.69455373928960829,0,174.66475403388563,0,41.004105393096722,0,0.83690191410874348,0,0.91259428732187609,0,15.167549919513526,-5.1815271339654485,-0.38825984544008124,0.76575375527890521,-214.18450665227292,-0.10084763056679658,111.91813874451223,204.62205208456129,306.56112104249189
201402191330,393.10870318855353,2.9987357859559918,1.0596733583674129,0,158.44214587834037,0,72.049282162110259,0,1.7999002219871905,0,1.6044193822800654,0,13.326070409343057,-10.522777283245853,-0.43038007764708941,0.94693208069024171,-446.37315421593587,-4.83900068720325913E-002,114.73836312334285,209.77832171349598,314.28615254198218
201402191400,393.25915273720545,3.0596626108216256,0.52691935149985203,0,130.84897198064959,0,31.525081412636208,0,0.34898035713270303,0,0.70221333428137001,0,6.9736484322586296,2.1706889169274999,0.11939682750456695,0.66801539178658953,-189.79883228167793,-0.11380470438271047,97.812981528601171,178.83332608471434,267.92491017356946
201402191430,393.19822745937165,3.1779698257243112,0.50143269380355482,0,87.826456313467872,0,50.693361602499458,0,0.73755647905684318,0,1.1294219526794715,0,5.1599875795918315,4.2117320857734732,-4.83228075248395977E-002,0.65185961064813769,-262.79943943271923,-8.21919561420142997E-002,93.139275655049673,170.28830114582644,255.12290570770193
201402191500,392.91327680061647,2.9802893970823896,1.0030628754427839,0,128.98848124679873,0,55.000755238187253,0,0.90903746978173761,0,1.2254580340944301,0,1.3787642297714835,-7.0382509703913509,-0.22604792795766845,0.92184406731557833,-506.19415971386917,-4.26713733959506736E-002,110.65193388559611,202.30702576713546,303.09278976596045
201402191530,392.97604493009896,2.8695967233043924,0.70450668066135569,0,77.383550542953969,0,47.712480116376085,0,0.94545664100225801,0,1.0629110115775919,0,-3.6305628972437440,-3.9446598004427771,4.98304463506977977E-002,0.77226167507350441,-496.12139849260444,-4.35377310183124172E-002,99.076222051343279,181.14293265018753,271.38512167406776
201402191600,393.04781854599509,2.8114096482078255,0.33899238101532292,0,34.141662058981531,0,33.799346950994604,0,0.71102845445128815,0,0.75298401585627506,0,0.70160651975205279,-2.0739944512206612,5.69932387608458324E-002,0.53562476702661521,-375.27025464502015,-5.75585187811704299E-002,89.033926226133971,162.78241305572359,243.87771759684034
201402191630,393.36556559140928,2.8276955770579124,0.47692709637376773,0,17.159386932041304,0,30.033213166013947,0,0.74473301737433339,1,0.66909712472407745,0,0.55522538809587996,0.58058658638504834,0.25236164561171065,0.63525977981058246,-1245.9103472361367,-1.73367209349503601E-002,105.56546138482443,193.00733178852536,289.16015355988498
201402191700,393.41729410908039,2.8880259698126380,0.27777776585040664,0,-18.067546977420747,1,12.800983978305370,0,1.0731874274890749,1,0.28507436636935141,0,-9.6803255544096682,2.1555792970570367,4.11597471691140457E-002,0.48437156819501148,524.65813916298805,4.11696653261865025E-002,96.107288920564869,175.71477599446843,263.25275386415143
201402191730,393.19725499596501,2.8925598253562668,0.16314227677701934,0,-38.140128252049841,0,8.9035029329617021,0,0.79508917554113312,0,0.19811819230948616,0,-19.790938430018485,0.16267806048170100,-0.17568093885522681,0.37057190341109536,111.31979219081721,0.19403557601845567,108.38598104795129,198.16414129132968,296.88599388880982
201402191800,393.13338658335795,2.9321180087723295,6.98458690509115437E-002,0,-33.364995081790269,0,1.0066456948793729,0,-4.67912883986176809E-002,0,2.23819796721926728E-002,0,-19.322169954708176,1.4253799889890695,-5.11684541086465591E-002,0.24205671497532577,35.475389956099910,0.60887279961487584,101.69374128884542,185.92859263128480,278.55491238717764
201402191830,393.37478220694049,3.0028899579807566,9.10254368399139729E-002,0,-41.367689881506507,0,2.0612828344448428,0,-0.16595728542771870,0,4.58120594014276017E-002,0,-10.185772436736526,2.5559190691095113,0.19375707148217972,0.27607557040068192,42.459962880347014,0.50871452857528898,102.39393206002893,187.20876467540100,280.47284338715281
201402191900,393.51509231530298,3.0707918271087218,0.10173018377052520,0,-55.837592515977988,0,5.5654775397993310,0,-0.11497185645839370,0,0.12366759277427206,0,-5.0386244295718683,2.4547892356185090,0.11271323475875146,0.29174148984172893,37.122761534998979,0.58185326486650868,87.607197204781841,160.17389737280902,239.96968577004219
201402191930,393.90612073161384,3.0832424631379669,0.17340183990364330,0,-58.360371608664870,0,10.688941449243609,0,0.17424684947651681,0,0.23745641837518666,0,-5.9257301388133330,0.45066062250684674,0.31442394221864506,0.38070667216262577,78.929575015987837,0.27366167872593694,96.243217800959869,175.96329734012335,263.62508412646093
201402192000,394.34610182612778,3.0626306350459092,0.17633177876974887,0,-59.088933786866953,0,8.7282832146034615,0,-1.29286414564804275E-002,0,0.19382446454651103,0,-9.6487979464186093,-0.74749091657234479,0.35432613480237551,0.38361563263457971,79.757578600110236,0.27082065904104752,107.46799541228663,196.48577077283261,294.37148901294967
201402192030,394.76474783345361,3.0674050713921672,0.14012737968926586,0,-46.819577121639171,0,6.4982562120133771,0,0.29531192502772896,0,0.14425926502021050,0,-7.5773845713374639,0.17339314545651627,0.33752322002868684,0.34178195521769972,71.185205268701878,0.30343383738891755,101.28756893397195,185.18598002454769,277.44234338055105
201402192100,395.01635478802626,3.1088323279879422,9.26879033053407131E-002,0,-26.343219395287118,0,-1.7958560174114340,1,-8.97880313900361049E-002,0,-3.98460623679293552E-002,1,-13.318639479488118,1.5083692758072853,0.20326286402047325,0.27769190208683636,67.853882544034491,0.31833108423799411,100.48695703415568,183.72220612961453,275.24934335141438
201402192130,395.37812349681849,3.2475577764203534,0.15458613019877862,0,-23.042061475195720,0,-4.5098609094428372,1,-1.68344803155033862E-002,1,-0.10003319501572214,1,-7.6120187745812675,5.0600728396698234,0.29269319366076452,0.35836471448439433,166.76692919893253,0.12952208272800805,112.99925464420670,206.59867675343406,309.52246498463683
201402192200,395.62501708767536,3.4601390931780394,8.39869855225748030E-002,0,-17.555231595319412,0,-1.1342381496674347,2,0.26833010694834669,0,-2.51525801280329427E-002,2,-5.8906983893443945,7.7646893308375597,0.19998024592096414,0.26400711024805329,87.534380983014202,0.24676018448329942,102.47949697380790,187.36520462731852,280.70721894221691
201402192230,395.76919190625688,3.6457639540688782,8.34523170349400628E-002,0,-18.108494311494042,0,-2.6171012305991024,1,2.72046657822807569E-002,0,-5.80253898018512626E-002,1,-4.6366283387578848,6.7874424461705898,0.11688451453824898,0.26305644544543416,83.959432338632496,0.25726710386607904,109.56281325390498,200.31576589519446,300.10951962273612
201402192300,395.73464436093269,3.8330116195431851,6.31015633353469441E-002,0,-16.521589767670516,0,-6.0648488619732692,0,-3.55508600608288594E-002,0,-0.13446853715135379,0,0.18105201843933455,6.8463451084563474,-2.80065922393814663E-002,0.22875861014326085,60.518728570605703,0.35691430587144302,102.10329925212180,186.67739520996687,279.67675509973833
201402192330,396.06820588214396,3.9019405942476855,6.16256897137597848E-002,0,-18.773139339427171,0,-5.3194122332024882,0,-0.67693121429290182,1,-0.11791958554108598,0,-4.5053932526368774,2.5222027827443774,0.27056799543872118,0.22600354514643695,51.355646413568842,0.42059639997624476,105.75730250096336,193.35807853341319,289.68563609815203
201402200000,396.42369976540010,4.0050370585761552,0.11663847935603701,0,-20.709480671751798,0,-5.9418731158078950,0,-0.59662908729335018,0,-0.13173570807818388,0,3.3219328541579505,3.7696226725900561,0.28818168639636565,0.31102612797536683,121.33303839651515,0.17802241075848951,112.48307807963387,205.65494136732326,308.10857740513961
